Terug naar catalogus

WESTFORD NEEDLES *

ActiefPO
NORAD 3267·DEBRIS·🇺🇸 United States

Gelanceerd May 9, 1963 vanaf Vandenberg Space Force Base

Loading…

Volgende Passages (komende 24 uur)

TLE

VersSource: Space-Track

Epoch: Sep 14, 2026, 09:59 UTC

1 03267U 63014CF  26257.41650028  .00000055  00000-0  40194-4 0  9992
2 03267  88.3710  70.4773 1686158 311.3319  35.4113 11.34168188552450

Volg WESTFORD NEEDLES * in realtime met AllMySat

Download on the App Store